SCP
0 0 0 0 0 0 0 0 0 0 0 0 0 0 0 0 0 0 0 0 0 0 0 0 0 0 0 0 0 0 0 0 0 0 0 0 0 0 0 0 0 0 0 0
0 0 0 0 0 0 0 0 0 0 0 0 0 0 0 0 0 0 0 0 0 0 0 0 0 0 0 0 0 0 0 0 0 0 0 0 0 0 0 0 0 0 0 0
0 0 0 0 0 0 0 0 0 0 0 0 0 0 0 0 0 0 0 0 0 0 0 0 0 0 0 0 0 0 0 0 0 0 0 0 0 0 0 0 0 0 0 0
0 0 0 0 0 0 0 0 0 0 0 0 0 0 0 0 0 0 0 0 0 0 0 0 0 0 0 0 0 0 0 0 0 0 0 0 0 0 0 0 0 0 0 0
0 0 0 0 0 0 0 0 0 0 0 0 0 0 0 0 0 0 0 0 0 0 0 0 0 0 0 0 0 0 0 0 0 0 0 0 0 0 0 0 0 0 0 0
0 0 0 0 0 0 0 0 0 0 0 0 0 0 0 0 0 0 0 0 0 0 0 0 0 0 0 0 0 0 0 0 0 0 0 0 0 0 0 0 0 0 0 0
0 0 0 0 0 0 0 0 0 0 0 0 -0 0 0 0 0 0 0 0 0 0 0 0 0 0 0 0 0 0 0 0 0 0 0 0 0 0 0 0 0 0 0 0
0 0 0 0 -0 -0 -0 0 0 0 0 -0 -0 0 0 0 0 0 0 0 0 0 0 0 0 0 0 0 0 0 0 0 0 0 0 0 0 0 0 0 0 0 0 0
0 0 0 0 -0 -0 -0 -0 0 0 0 0 0 0 0 0 0 0 0 0 0 0 0 0 0 0 0 0 0 0 0 0 0 0 0 0 0 0 0 0 0 0 0 0
0 0 0 0 -0 -0 -0 -0 0 0 0 0 0 0 0 0 0 0 0 0 0 0 0 0 0 0 0 0 0 0 0 0 0 0 0 0 0 0 0 0 0 0 0 0
0 0 0 0 0 -0 0 0 0 0 0 0 0 0 0 0 0 0 0 0 0 0 0 0 0 0 0 0 0 0 0 0 0 0 0 0 0 0 0 0 0 0 0 0
0 0 0 0 0 0 0 0 0 0 0 0 0 0 0 0 0 0 0 0 0 0 0 0 0 0 0 0 0 0 0 0 0 0 0 0 0 0 0 0 0 0 0 0
0 0 0 0 0 0 0 0 0 0 0 0 0 0 0 0 0 0 0 0 0 0 0 0 0 0 0 0 0 0 0 0 0 0 0 0 0 0 0 0 0 0 0 0
-0 0 0 0 0 0 0 0 0 0 0 0 0 0 0 0 0 0 0 0 0 0 0 -0 -0 -0 -0 0 0 0 0 0 0 0 0 0 0 0 0 0 0 0 0 0
-0 -0 -0 0 0 0 0 0 0 0 0 0 0 0 0 0 0 0 0 0 0 0 0 0 -0 -0 -0 0 0 0 0 0 0 0 0 0 0 0 0 0 0 0 0 0
0 0 -0 -0 0 0 0 0 0 0 0 0 0 0 0 0 0 0 0 0 0 0 0 0 0 0 -0 0 0 0 0 0 0 0 0 0 0 0 0 0 0 0 0 0
0 0 -0 -0 -0 0 0 0 0 0 0 0 0 0 0 0 0 0 0 0 0 0 0 0 0 0 -0 0 0 0 0 0 0 0 0 0 0 0 0 0 0 0 0 0
0 0 -0 -0 -0 -0 -0 -0 0 0 0 0 0 0 0 0 0 0 0 0 0 0 0 0 0 0 0 0 0 0 0 0 0 0 0 0 0 0 0 0 0 0 0 0
-0 0 0 0 0 -0 -0 -0 0 0 0 0 0 0 0 0 0 0 0 0 0 0 0 0 0 0 0 0 0 0 0 0 0 0 0 0 0 0 0 0 0 0 0 0
0 0 0 0 0 0 0 0 0 0 0 0 0 0 0 0 0 0 0 0 0 0 0 0 0 0 0 0 0 0 0 0 0 0 0 0 0 0 0 0 0 0 0 0
0 0 0 0 0 0 0 0 0 0 0 0 0 0 0 0 0 0 0 0 0 0 0 0 0 0 0 0 0 0 0 0 0 0 0 0 0 0 0 0 0 0 0 0
0 0 0 0 0 0 0 0 0 0 0 0 0 -0 -0 0 0 0 0 0 0 0 0 0 0 0 0 0 0 0 0 0 0 0 0 0 0 0 0 0 0 0 0 0
0 0 0 0 0 0 0 0 0 0 0 0 -0 -0 -0 0 0 0 0 0 0 0 0 0 0 0 0 0 0 0 0 0 0 0 0 0 0 0 0 0 0 0 0 0
0 0 0 0 0 0 0 0 0 0 0 -0 -0 -0 -0 0 0 0 0 0 0 0 0 0 0 0 0 0 0 0 0 0 0 0 0 0 0 0 0 0 0 0 0 0
0 0 0 0 0 -0 -0 -0 -0 -0 -0 -0 -0 -0 -0 0 0 0 0 0 0 0 0 0 0 0 0 0 0 0 0 0 0 0 0 0 0 0 0 0 0 0 0 0
-0 -0 0 0 -0 -0 -0 -0 -0 -0 -0 -0 0 0 0 0 0 0 0 0 0 0 0 0 0 0 0 0 0 0 0 0 0 0 0 0 0 0 0 0 0 0 0 0
-0 -0 0 0 0 -0 -0 -0 -0 -0 -0 0 0 0 0 0 0 0 0 0 0 0 0 0 0 0 0 0 0 0 0 0 0 0 0 0 0 0 0 0 0 0 0 0
Wind_Speed
6 6 4 6 8 8 10 10 10 11 11 14 11 8 7 5 3 2 2 2 2 2 2 2 2 2 2 1 1 1 0 0 1 0 0 1 1 1 2 2 2 2 1 1
4 5 5 7 10 10 11 10 11 12 14 12 8 5 5 4 3 4 4 3 2 2 2 2 2 2 1 1 1 1 1 1 0 1 1 1 1 1 2 2 1 1 1 1
4 3 2 7 9 9 6 6 7 11 12 7 7 6 6 5 5 5 4 3 3 2 2 3 3 2 2 1 1 1 1 0 0 1 1 1 1 1 1 2 2 1 1 1
2 1 6 8 2 5 6 6 7 7 7 7 7 7 5 5 5 5 4 3 3 2 2 2 1 1 1 1 1 1 1 1 1 1 1 1 1 1 1 1 1 1 1 1
2 3 8 7 3 2 4 6 4 7 9 7 5 5 5 3 3 5 4 3 3 2 2 1 1 1 2 1 1 1 1 1 1 1 1 1 1 0 0 1 1 1 1 1
3 3 7 7 3 1 2 6 4 4 6 5 2 3 6 3 2 2 2 2 1 1 0 0 1 1 2 1 1 2 2 1 1 1 1 1 1 1 0 1 1 0 0 1
4 5 9 7 2 2 2 7 5 4 5 4 4 6 5 3 2 1 1 1 1 1 0 1 1 2 2 2 2 2 1 1 1 1 1 2 1 1 1 1 1 0 0 1
4 4 9 3 3 5 7 5 4 5 5 5 5 5 4 3 2 1 1 1 0 1 0 1 1 2 2 2 1 1 1 1 1 1 1 1 2 1 1 1 1 0 0 1
8 9 5 3 6 6 4 5 5 5 6 5 4 4 4 3 2 1 1 1 0 1 0 1 0 1 2 1 1 1 1 1 1 1 1 2 2 2 1 1 1 1 1 1
5 9 7 7 6 6 6 6 6 6 6 4 4 4 3 3 2 1 1 1 1 1 1 1 1 0 1 1 1 1 1 1 1 2 1 1 1 1 1 1 1 1 1 1
7 8 6 6 6 7 7 6 6 5 4 4 3 4 3 2 2 2 1 1 1 1 1 1 1 0 0 1 1 1 1 1 1 1 1 1 0 1 1 2 2 2 2 2
7 6 5 7 6 5 5 6 5 5 4 3 3 3 3 2 2 1 1 1 0 1 1 1 1 1 1 1 1 1 1 1 1 1 1 1 1 1 1 1 2 3 3 2
8 7 6 7 6 5 5 5 4 3 3 3 2 1 2 1 1 1 1 1 1 1 1 1 1 1 1 1 1 1 1 1 1 1 1 1 1 1 1 2 2 2 2 3
6 5 6 6 5 5 4 4 3 3 2 1 1 0 0 0 0 1 1 1 1 0 1 1 1 1 1 1 1 1 1 1 1 1 1 1 1 1 1 1 1 2 2 3
5 4 6 5 5 4 4 3 3 3 3 2 1 0 0 1 1 1 1 1 0 0 1 1 1 2 1 1 1 1 1 1 1 1 1 1 1 1 1 1 1 1 1 2
5 4 4 4 5 5 4 3 2 3 3 2 2 2 1 0 0 1 1 0 0 1 2 2 2 2 1 1 1 1 1 2 1 1 1 1 1 1 1 1 1 1 2 2
3 4 4 5 5 5 4 3 3 3 2 2 2 2 1 1 1 1 1 1 1 2 2 2 2 2 1 1 1 1 1 1 1 1 1 1 1 1 1 1 1 1 2 2
5 5 5 5 4 4 4 3 2 2 3 3 1 0 0 0 1 2 2 2 2 2 2 2 2 1 1 1 1 1 1 1 1 1 1 1 1 1 1 1 1 2 2 2
4 4 4 4 3 3 3 3 3 2 2 1 1 1 1 2 2 2 1 1 2 3 3 2 2 1 1 2 1 1 1 1 1 1 1 1 1 0 1 1 1 1 2 2
3 3 3 3 3 2 2 3 2 2 2 1 1 1 1 2 1 1 1 2 2 3 3 3 2 1 1 2 1 1 1 1 1 1 1 1 1 1 1 1 1 2 2 2
4 4 3 3 3 3 3 2 2 2 2 1 1 2 2 2 1 1 1 2 3 2 2 3 1 1 1 2 1 1 1 1 1 1 1 1 1 1 1 1 1 2 2 1
3 3 3 3 3 3 3 2 2 2 2 1 1 1 1 2 2 2 2 2 3 3 2 1 1 2 2 1 1 1 1 1 1 1 1 1 1 1 1 1 2 2 1 1
3 2 2 2 2 3 3 3 2 2 2 2 2 2 2 2 2 2 2 2 2 3 2 2 3 2 1 1 1 1 1 1 1 1 1 1 1 1 2 2 2 2 1 1
2 2 2 2 1 1 2 3 2 2 2 2 2 2 2 2 2 2 2 3 4 3 2 3 3 2 0 0 0 0 1 1 1 1 1 1 1 1 1 1 2 2 1 2
2 2 2 1 1 2 2 2 2 2 2 2 2 2 2 2 2 2 2 2 3 3 2 3 3 1 0 0 0 0 1 1 1 1 1 1 1 1 1 1 2 2 2 2
2 2 2 2 2 2 1 1 1 1 1 2 2 2 1 1 1 1 1 2 2 2 1 1 1 1 0 0 0 0 0 1 1 1 1 1 1 1 1 1 2 1 2 2
2 2 1 2 2 1 1 1 1 2 2 2 2 2 1 1 1 1 1 1 1 1 1 1 0 0 0 0 0 0 0 0 1 1 1 1 1 1 1 1 1 1 1 2
Wind_Direction
250 262 251 248 251 223 214 217 227 249 256 272 283 287 288 282 277 284 296 297 256 237 235 229 222 220 212 223 220 159 131 192 219 196 154 121 119 144 156 160 171 170 168 182
268 251 252 267 262 241 240 238 241 258 268 272 281 284 287 275 259 259 262 263 269 252 230 229 224 225 212 224 222 154 156 200 260 104 109 112 111 119 131 136 136 135 155 167
256 283 314 271 247 225 222 218 209 239 258 286 295 283 271 258 246 250 252 250 245 249 233 231 226 216 211 218 190 155 162 162 149 130 123 110 102 105 119 122 122 125 144 142
247 36 239 245 222 215 229 243 229 252 279 283 278 287 276 249 234 241 240 241 243 242 257 250 225 209 189 177 168 159 164 177 166 149 139 108 94 102 112 111 124 138 183 190
187 236 273 289 276 208 215 266 244 252 275 294 308 317 291 261 227 230 232 235 237 229 236 247 229 191 152 169 162 151 185 207 205 176 157 143 149 187 160 119 134 169 192 200
179 212 249 260 283 272 135 282 273 249 266 283 337 301 285 302 284 258 240 224 219 204 180 217 251 165 146 170 174 193 213 212 201 180 176 184 191 200 203 160 165 169 255 237
207 229 259 265 290 95 160 260 292 271 269 254 233 245 276 295 294 267 240 226 183 172 192 233 223 146 155 177 210 226 207 170 158 168 190 192 181 181 166 141 118 133 248 267
181 216 253 246 134 191 235 275 284 278 271 259 261 276 282 277 269 271 279 266 183 149 227 286 192 152 169 217 239 193 154 150 162 177 193 169 164 169 151 145 141 150 285 314
198 220 248 213 224 248 261 272 276 274 277 265 265 272 279 273 259 265 246 256 242 164 194 313 285 162 184 238 197 135 134 169 179 171 183 169 162 162 155 159 177 203 210 271
253 264 267 267 270 277 270 264 272 273 276 266 259 261 271 267 263 264 256 237 207 159 182 293 310 55 194 199 169 144 154 159 145 147 149 136 156 164 169 193 202 215 228 252
254 275 297 282 268 275 282 284 285 289 277 257 240 253 252 248 253 243 247 262 197 188 217 263 277 280 202 176 152 142 150 148 135 132 136 124 106 201 205 220 219 223 227 225
240 251 248 271 283 282 282 285 283 287 295 282 229 238 243 246 251 236 227 233 205 208 220 258 241 249 251 179 161 151 162 161 158 153 144 137 121 3 329 267 275 274 266 262
250 268 258 275 291 290 281 289 295 290 278 283 281 225 220 248 257 228 244 235 231 240 242 244 243 260 270 200 181 179 191 194 184 175 164 168 177 183 312 339 329 307 295 290
262 274 279 282 285 297 293 297 310 324 313 290 284 288 181 234 279 251 260 266 266 255 261 240 243 267 268 209 187 189 199 210 198 190 185 186 192 205 211 247 309 320 312 303
272 257 261 288 302 307 308 320 339 334 333 338 346 311 203 201 236 266 291 309 2 343 301 260 251 270 267 200 194 201 205 208 197 189 193 190 188 193 201 220 250 281 307 314
293 294 289 292 292 301 315 320 315 311 321 320 322 313 308 264 287 320 339 77 180 263 273 262 260 265 246 201 196 206 223 237 237 197 187 177 176 185 207 225 241 257 270 285
291 293 290 292 290 293 292 281 272 282 297 292 285 300 346 29 9 345 335 320 295 279 278 268 270 280 255 216 202 206 213 224 238 226 199 199 201 207 220 228 240 260 273 275
251 261 266 271 279 285 289 287 277 277 278 278 286 297 288 251 270 291 311 328 335 332 312 291 279 271 240 228 216 201 192 196 209 212 202 207 222 223 226 231 240 261 282 285
283 283 288 291 289 280 281 284 283 282 281 264 236 247 257 260 265 280 303 321 308 302 302 306 302 292 245 242 233 183 169 181 206 218 201 228 255 239 242 246 255 264 276 284
307 311 317 321 325 310 292 293 292 292 283 253 233 258 279 280 274 273 275 273 267 272 286 293 288 267 252 237 230 187 182 186 193 204 211 210 220 227 236 247 256 261 267 271
315 322 328 326 324 324 313 302 290 285 291 268 236 249 264 278 275 259 256 286 295 296 294 294 290 264 246 232 219 179 182 182 185 193 205 216 227 233 239 250 256 260 263 269
311 319 319 316 318 322 322 317 301 292 301 295 280 266 264 273 279 280 264 258 278 296 304 283 273 260 256 233 185 181 188 193 202 202 207 217 224 236 246 254 260 266 268 268
303 303 305 306 303 307 321 328 322 306 293 281 271 262 258 262 257 256 288 287 276 288 299 279 283 273 242 157 182 188 191 201 215 221 223 223 230 239 248 257 266 273 275 276
300 300 298 298 303 318 322 320 321 314 297 288 279 266 255 268 282 262 264 288 293 295 290 290 297 291 186 136 172 184 201 218 220 224 236 246 249 252 256 265 276 280 277 278
291 293 298 305 305 292 289 305 320 321 314 304 298 291 273 248 254 276 282 282 292 302 302 296 301 312 36 123 179 193 210 230 221 209 223 246 255 257 262 265 267 272 275 278
286 282 276 269 266 266 273 284 291 298 304 306 310 310 309 297 277 283 290 291 292 302 307 305 307 317 293 208 229 239 239 264 278 257 247 256 261 260 260 266 270 269 273 277
285 280 282 291 283 254 247 250 257 271 272 272 293 306 310 312 316 318 314 311 313 318 327 340 343 342 328 259 239 234 244 264 265 265 265 266 269 268 268 273 276 280 284 285